www.pogodaiklimat.ru

Погода и климат >> Архив погоды >> Украина >> Запорожье


АРХИВ ПОГОДЫ в Запорожье

Время (UTC), дата Ветер
(напр.,м/с)
 
Видим.   Явления Облачность Т
(С)
Тd
(С)
f
(%)
Тe
(С)
Тes
(С)
Комфортность P
(гПа)
Po
(гПа)
Тmin
(С)
Tmax
(С)
R
(мм)
R24
(мм)
S
(см)
21 8.07 С 2 10 км ясно +19.5 +12.8 65 +22 +22 комфорт 1010.2 997.3
00 9.07 С 3 10 км ясно +17.2 +13.3 78 +17 +17 по сезону 1010.2 997.2
03 9.07 СЗ 3 10 км 3/0
[Ci fib]
+18.2 +14.9 81 +19 +19 по сезону 1010.6 997.6
06 9.07 С 2 10 км 3/0
[Ci fib]
+26.5 +15.9 52 +30 +38 душно 1010.7 998.1 +15.4
09 9.07 СВ 2 10 км 4/4 1500 м
[Cu hum]
+29.2 +13.8 39 +31 +42 жарко 1010.3 997.8
12 9.07 З 3 10 км 4/4 1500 м
[Cu hum]
+30.5 +12.0 32 +31 +38 жарко 1009.7 997.2
15 9.07 СЗ 1 10 км 5/3 1500 м
[Cu hum Ci fib]
+30.7 +12.6 33 +32 +34 жарко 1009.7 997.3
18 9.07 СЗ 3 10 км 5/0
[Ac trans]
+24.3 +13.8 52 +27 +27 жарко 1010.7 998.0 +31.6
21 9.07 С 4 10 км 4/0
[Ac trans]
+22.4 +13.7 58 +26 +26 жарко 1011.5 998.7
00 10.07 С 3 10 км 8/0
[Ac trans]
+23.3 +14.0 56 +27 +27 душно 1011.6 998.8
03 10.07 СВ 2 10 км в посл. час ливневой дождь 8/4 1000 м
[Cb calv Ac trans]
+21.6 +14.5 64 +25 +25 комфорт 1012.2 999.4
06 10.07 В 3 10 км 5/0
[Ci fib]
+25.3 +14.4 51 +28 +35 жарко 1012.3 999.6 +20.9 0.0
09 10.07 СВ 3 10 км 4/0
[Ac trans]
+30.7 +13.9 36 +32 +44 жарко 1011.9 999.4
12 10.07 СВ 4 10 км 6/6 1500 м
[Cu hum]
+33.0 +13.1 30 +34 +37 очень
жарко
1010.6 998.2
15 10.07 СВ 3 10 км 6/6 1000 м
[Cb calv]
+31.7 +13.0 32 +33 +34 жарко 1009.7 997.3
18 10.07 С 4 10 км 8/0
[Ac trans]
+29.0 +13.3 38 +31 +31 жарко 1009.9 997.4 +33.8
21 10.07 СВ 4 10 км ясно +26.8 +12.1 40 +28 +28 жарко 1009.9 997.3
00 11.07 В 4 10 км 6/0
[Ac und]
+23.8 +12.1 48 +26 +26 жарко 1009.6 996.9
03 11.07 СВ 1 10 км 8/3 1500 м
[Cu hum Ac trans]
+22.1 +13.5 58 +25 +25 комфорт 1009.6 996.8
06 11.07 СВ 1 10 км гроза без осадков 8/6 900 м
[Cb cap Ac trans]
+28.2 +16.1 48 +31 +34 душно 1009.6 997.1 +21.9
09 11.07 С 6 10 км слабый ливневой дождь, в посл. час гроза 8/4 1500 м
[Cb calv Ac trans]
+24.1 +20.4 80 +30 +32 очень
душно
1009.7 997.0
12 11.07 С 6 10 км в посл. час гроза {ливн. осадки} 8/4 1500 м
[Cb calv Ac trans]
+26.1 +19.2 66 +31 +33 очень
душно
1010.1 997.5
15 11.07 С 6 10 км 5/0
[Ac trans]
+27.3 +19.0 61 +33 +34 очень
душно
1009.2 996.7
18 11.07 штиль 0 10 км 6/0
[Ac trans Ci]
+23.5 +17.7 70 +28 +28 душно 1010.0 997.3 +28.4 6
21 11.07 С 3 10 км 3/0
[Ci fib]
+19.8 +17.9 89 +23 +23 комфорт 1011.1 998.2
00 12.07 С 4 10 км 3/0
[Ac trans]
+20.5 +18.1 86 +24 +24 комфорт 1010.8 997.9
03 12.07 С 1 10 км 8/0
[Ac trans]
+20.4 +18.3 88 +25 +26 комфорт 1011.1 998.2
06 12.07 СВ 1 10 км ясно +24.4 +19.8 76 +30 +40 очень
душно
1011.0 998.3 +19.6
09 12.07 С 2 10 км 3/3 1500 м
[Cu hum]
+29.8 +16.9 46 +33 +46 душно 1010.3 997.8
12 12.07 СЗ 3 10 км 5/5 1500 м
[Cu hum]
+30.5 +17.7 46 +35 +40 очень
душно
1009.7 997.3
15 12.07 С 3 10 км 3/3 1500 м
[Cu hum]
+30.5 +17.2 45 +34 +36 очень
душно
1009.2 996.8
18 12.07 С 3 10 км 3/0
[Ci fib]
+25.6 +17.8 62 +30 +30 душно 1009.9 997.3 +31.4
21 12.07 СЗ 3 10 км ясно +22.4 +17.8 75 +27 +27 душно 1010.4 997.6
00 13.07 С 1 10 км ясно +20.7 +16.1 75 +25 +25 комфорт 1010.4 997.5
03 13.07 штиль 0 10 км 1/0
[Ac trans]
+20.1 +16.5 80 +23 +23 комфорт 1010.3 997.4
06 13.07 С 2 10 км ясно +26.5 +17.8 59 +31 +40 душно 1009.8 997.2 +19.1
09 13.07 СЗ 3 10 км ясно +29.7 +16.2 44 +33 +47 душно 1009.3 996.8
12 13.07 СЗ 4 10 км 4/4 1500 м
[Cu hum]
+32.0 +15.1 36 +34 +40 душно 1008.2 995.8
15 13.07 С 3 10 км 4/1 1500 м
[Cu hum Ci fib]
+31.4 +15.4 38 +34 +36 душно 1006.8 994.4
18 13.07 СЗ 3 10 км 6/0
[Ac trans Ci fib]
+26.2 +15.9 53 +29 +29 жарко 1007.6 995.0 +32.1
21 13.07 СЗ 3 10 км 8/4 1500 м
[Cb calv Ac trans]
+24.6 +17.3 64 +29 +29 душно 1007.4 994.8
00 14.07 СЗ 2 10 км 8/0
[Ac und]
+23.0 +16.5 67 +28 +28 душно 1007.1 994.4
03 14.07 З 3 10 км 6/3 1500 м
[Sc Ac trans]
+22.0 +17.6 76 +27 +27 душно 1006.9 994.2
06 14.07 СЗ 3 10 км 8/4 1500 м
[Sc Ac trans]
+27.3 +17.5 55 +31 +34 душно 1006.1 993.6 +21.5
09 14.07 З 2 10 км 8/8 900 м
[Sc]
+31.1 +17.4 44 +35 +39 очень
душно
1004.8 992.5
12 14.07 З 6 10 км в посл. час гроза 8/4 1000 м
[Sc Ac trans Ci fib]
+26.7 +18.0 59 +31 +33 душно 1004.7 992.2
15 14.07 В 2 10 км 8/5 570 м
[Sc Ac trans]
+25.4 +17.8 63 +30 +31 душно 1005.0 992.4
18 14.07 З 2 10 км 5/0
[Ac trans]
+22.7 +17.4 72 +28 +28 душно 1004.6 991.9 +31.4
21 14.07 СЗ 3 10 км 1/0
[Ci fib]
+20.7 +17.3 81 +25 +25 комфорт 1005.5 992.7
00 15.07 З 3 10 км ясно +17.9 +15.9 88 +18 +18 по сезону 1005.0 992.1
03 15.07 З 3 10 км 6/0
[Ci fib]
+18.6 +16.6 88 +20 +20 по сезону 1004.9 992.0
06 15.07 З 4 10 км 6/0
[Ci fib]
+25.5 +17.4 61 +30 +35 душно 1004.1 991.5 +17.1
09 15.07 СЗ 4 10 км 6/6 1500 м
[Cu med, cong]
+28.2 +15.1 45 +31 +36 душно 1004.2 991.7
12 15.07 З 5 10 км 8/5 1500 м
[Cu med, cong Ci fib]
+28.5 +14.3 42 +31 +34 душно 1003.5 991.1
15 15.07 СЗ 4 10 км 5/3 1500 м
[Cu med, cong Ci fib]
+28.9 +13.2 38 +30 +32 жарко 1002.8 990.4
18 15.07 СЗ 2 10 км 5/0
[Ac trans]
+23.2 +13.7 55 +27 +27 душно 1003.9 991.2 +30.1

 

Местоположение метеостанции Запорожье (Запорожская область, Украина): широта 47.80 долгота 35.02 высота над уровнем моря 112 м.

В архиве по умолчанию представлена погода в Запорожье за последнюю неделю. Архивные данные за месяц целиком и за предыдущие месяцы, начиная с января 2011 года, Вы можете получить, выбрав интересующий диапазон дат из раскрывающегося списка и нажав кнопку "Ввод!".


*Определитесь, кто Вы:
робот инопланетянин человек

Внимание! Время в таблицах - всемирное. Для получения местного времени необходимо прибавить поправку, которая в Запорожье равна 2 ч.

Смотрите также архив погоды в соседних городах и на ближайших метеорологических станциях:

Погода в Никополе (Днепропетровская область, Украина) (49 км)
Погода в Пришибе (Запорожская область, Украина) (63 км)
Погода в Лошкарёвке (Днепропетровская область, Украина) (65 км)
Погода в Синельниково (Днепропетровская область, Украина) (76 км)
Погода в Днепре (Днепропетровская область, Украина) (89 км)
Погода в Гуляйполе (Запорожская область, Украина) (93 км)
Погода в Чаплино (Днепропетровская область, Украина) (97 км)
Погода в Павлограде (Днепропетровская область, Украина) (101 км)
Погода в Комиссаровке (Днепропетровская область, Украина) (109 км)
Погода в Мелитополе (Запорожская область, Украина) (111 км)

Пояснения к столбцам:

Ветер - указаны скорость ветра в м/с - средняя за 10 мин, порывы в срок и между сроками (в фигурных скобках) и направление, откуда дует ветер: С - северный, СВ - северо-восточный, В - восточный, ЮВ - юго-восточный, Ю - южный, ЮЗ - юго-западный, З - западный, СЗ - северо-западный.
Видимость - горизонтальная дальность видимости в метрах или километрах. При видимости от 1 до 10 км при отсутствии осадков обычно наблюдается дымка, при ухудшении видимости до 1 км и менее - туман. В сухую погоду видимость может ухудшаться дымом, пылью или мглою.
Явления - указаны атмосферные явления, наблюдавшиеся в срок или в последний час перед сроком; фигурными скобками обозначены явления, наблюдавшиеся между сроками (за 1-3 часа до срока); квадратными скобками обозначены град или гололедные отложения с указанием их диаметра в мм.
Облачность - указаны через наклонную черту общая и нижняя облачность в баллах и высота нижней границы облаков в метрах; квадратными скобками обозначены формы облаков: Ci - перистые, Cs - перисто-слоистые, Cc - перисто-кучевые, Ac - высококучевые, As - высокослоистые, Sc - слоисто-кучевые, Ns - слоисто-дождевые, Cu - кучевые, Cb - кучево-дождевые. Подробнее классификацию облаков см. в Атласе облаков (PDF).
T - Температура воздуха - температура, измеренная на высоте 2 м над землей.
Td - Температура точки росы - температура, при понижении до которой содержащийся в воздухе водяной пар достигнет насыщения.
f - Относительная влажность воздуха - влажноcть воздуха, измеренная на высоте 2 м над землей.
Te - Эффективная температура - температура, которую ощущает одетый по сезону человек в тени. Характеристика душности погоды. При расчете учитывается влияние влажности воздуха и скорости ветра на теплоощущения человека.
Tes - Эффективная температура на солнце - температура, которую ощущает человек, с поправкой на солнечный нагрев. Характеристика знойности погоды. Зависит от высоты солнца над горизонтом, облачности и скорости ветра. Ночью, в пасмурную погоду, а также при ветре 12 м/с и более поправка равна нулю.
P - Атмосферное давление - приведенное к уровню моря атмосферное давление.
Po - Атмосферное давление - измеренное на уровне метеостанции атмосферное давление.
Tmin - Минимальная температура - минимум температуры воздуха на высоте 2 м над землей.
Tmax - Максимальная температура - максимум температуры воздуха на высоте 2 м над землей.
R - Количество осадков - Количество выпавших осадков за период времени, мм. При наведении курсора мыши на число - период времени, за который выпало указанное количество осадков.
R24 - Количество осадков - Количество выпавших осадков за 24 часа, мм.
S - Снежный покров - Высота снежного покрова, см. При наведении курсора мыши на число - состояние снежного покрова и степень покрытия местности в баллах.